Погода в Киваче

Россия / Республика Карелия     62°16′33″N   33°58′54″E
темп.,
°C
ветер,
м/с
пор.,
м/с
влажн.,
%
обл.,
%
осадки,
мм/ч
давл.,
гПа
погр.,
м
8 марта, пн
пн800:00−11ссв51290100 0.1 1000702
03:00−14ссв51392100 0.1 1004495
06:00−18с51194100 0.0 1007416
09:00−20с41094100 0.0 1010381
12:00−18с489293 0.0 1012414
15:00−16с489093 0.0 1014511
18:00−18с389390 0.0 1015354
21:00−23с399663 0.0 1017194
9 марта, вт
вт900:00−27с239732 0.0 101863
03:00−29с239826 0.0 102034
06:00−30с22980 0.0 102119
09:00−28с23970 0.0 1023102
12:00−20ссв11880 0.0 1024277
15:00−17ссз11820 0.0 1024313
18:00−20ссз11910 0.0 102420
21:00−22з11900 0.0 102620
10 марта, ср
ср1000:00−23сз12900 0.0 102620
03:00−23зсз22910 0.0 102720
06:00−24сз12930 0.0 102720
09:00−19зсз139023 0.0 102889
12:00−12сз248379 0.0 1029270
15:00−9сз248275 0.0 1029435
18:00−11зсз229027 0.0 102821
21:00−16з129113 0.0 102920
11 марта, чт
чт1100:00−18з12900 0.0 102920
03:00−19зюз12910 0.0 102920
06:00−21юз12830 0.0 102820
09:00−18юз14850 0.0 1027124
12:00−11ююз37860 0.0 1025375
15:00−8ююз38750 0.0 1023690
18:00−11ю38870 0.0 1020203
21:00−13ююв312930 0.0 1018421
12 марта, пт
пт1200:00−14ююв3129213 0.0 1015427
03:00−14ююв3119433 0.0 1013378
06:00−14ююв4129497 0.0 1010381
09:00−12ююв4138868 0.0 1007575
12:00−7ю5118683 0.0 1005902
15:00−5ююв6118891 0.2 10021059
18:00−6ююв51292100 0.2 10001045
21:00−6ююв51389100 0.4 999867